Location: Newark
(53.7833°N, 9.4833°E)
Time: 09:05:26
(UTC+00:00)

Envisat - Pass Details

Date: 18 December 2019
Orbit: 764 x 766 km, 98.1° (Epoch: 24 January)

Event Time Altitude Azimuth Distance (km) Brightness Sun altitude
Rises 06:19:18 0° 15° (NNE) 3,248 6.1 -10.2°
Reaches altitude 10° 06:21:37 10° 17° (NNE) 2,317 5.4 -9.9°
Maximum altitude 06:26:44 78° 104° (ESE) 790 3.2 -9.3°
Drops below altitude 10° 06:31:49 10° 191° (S) 2,299 5.7 -8.6°
Sets 06:34:07 0° 193° (SSW) 3,221 6.4 -8.3°
